This demonstration page uses our WeatherBlox Daily Observations layout. Learn more.

Left ArrowRight Arrow

34.74481, -87.66753

Hourly Observations for July 6, 2016

Temp ( °F °C ) Dew Point ( °F °C ) Humidity (%) Winds ( mph kmh ) Pressure ( in mb ) Visibility ( mi km ) Precip ( " mm )
12:53 am 00:53 Partly Cloudy 77 25 72 22.2 85 85 S 3 6 30.01 1016 10 16 0.00 0.00
1:53 am 01:53 Mostly Clear 77 25 72 22.2 85 85 SSW 3 6 30.01 1016 10 16 0.00 0.00
2:53 am 02:53 Mostly Clear 76 24.4 71 21.7 85 85 S 3 6 30.00 1016 10 16 0.00 0.00
3:53 am 03:53 Clear 75 23.9 70 21.1 84 84 S 3 6 30.00 1016 10 16 0.00 0.00
4:53 am 04:53 Partly Cloudy 74 23.3 70 21.1 88 88 ESE 3 6 30.01 1016 10 16 0.00 0.00
5:53 am 05:53 Mostly Sunny 74 23.3 70 21.1 88 88 SSE 5 7 30.03 1017 9 14 0.00 0.00
6:53 am 06:53 Mostly Sunny 76 24.4 71 21.7 85 85 S 3 6 30.05 1018 9 14 0.00 0.00
7:16 am 07:16 Mostly Cloudy 78 25.6 72 22.2 82 82 SSW 6 9 30.03 1017 9 14 0.00 0.00
7:53 am 07:53 Mostly Cloudy 80 26.7 73 22.8 79 79 WSW 9 15 30.05 1018 10 16 0.00 0.00
8:32 am 08:32 Mostly Cloudy 82 27.8 74 23.3 77 77 WSW 13 20 30.06 1018 10 16 0.00 0.00
8:45 am 08:45 Mostly Cloudy 82 27.8 74 23.3 77 77 WSW 9 15 30.06 1018 10 16 0.00 0.00
8:53 am 08:53 Partly Cloudy 83 28.3 75 23.9 77 77 WSW 10 17 30.06 1018 10 16 0.00 0.00
9:53 am 09:53 Sunny 86 30 74 23.3 67 67 WSW 14 22 30.05 1018 10 16 0.00 0.00
10:53 am 10:53 Partly Cloudy 90 32.2 74 23.3 59 59 SW 15 24 30.04 1017 10 16 0.00 0.00
11:53 am 11:53 Mostly Sunny 92 33.3 71 21.7 51 51 SW 17 28 30.01 1016 10 16 0.00 0.00
12:53 pm 12:53 Mostly Sunny 92 33.3 70 21.1 49 49 SW 15 24 30.01 1016 10 16 0.00 0.00
1:53 pm 13:53 Mostly Sunny 93 33.9 71 21.7 49 49 WSW 14 22 29.99 1016 10 16 0.00 0.00
2:53 pm 14:53 Partly Cloudy 94 34.4 71 21.7 48 48 WSW 13 20 29.95 1014 10 16 0.00 0.00
3:53 pm 15:53 Mostly Sunny 92 33.3 69 20.6 47 47 W 10 17 29.96 1015 10 16 0.00 0.00
4:53 pm 16:53 Partly Cloudy 93 33.9 68 20 44 44 WSW 12 19 29.96 1015 10 16 0.00 0.00
5:53 pm 17:53 Partly Cloudy 93 33.9 68 20 44 44 WSW 17 28 29.95 1014 10 16 0.00 0.00
6:53 pm 18:53 Sunny 91 32.8 69 20.6 49 49 SW 14 22 29.95 1014 10 16 0.00 0.00
7:53 pm 19:53 Sunny 89 31.7 70 21.1 53 53 SSW 6 9 29.96 1015 10 16 0.00 0.00
8:53 pm 20:53 Clear 86 30 70 21.1 59 59 SSW 5 7 29.97 1015 10 16 0.00 0.00
9:53 pm 21:53 Clear 81 27.2 72 22.2 74 74 S 5 7 29.96 1015 10 16 0.00 0.00
10:53 pm 22:53 Cloudy 81 27.2 72 22.2 74 74 S 6 9 29.95 1014 10 16 0.00 0.00
11:53 pm 23:53 Clear 82 27.8 72 22.2 72 72 SSW 8 13 29.94 1014 10 16 0.00 0.00

Powered by AerisWeather